Location: Cluj-Napoca
(46.7712°N, 23.6236°E)
Time: 18:26:18
(UTC+03:00)

ISS - Pass Details

Date: 24 May 2020
Orbit: 417 x 420 km, 51.6° (Epoch: 26 May)

Event Time Altitude Azimuth Distance (km) Brightness Sun altitude
Rises 22:32:22 0° 288° (WNW) 2,366 1.1 -12.2°
Reaches altitude 10° 22:34:35 10° 297° (WNW) 1,502 0.2 -12.4°
Maximum altitude 22:37:43 35° 6° (N) 697 -2.2 -12.7°
Drops below altitude 10° 22:40:51 10° 74° (ENE) 1,502 -1.2 -13.1°
Enters shadow 22:41:47 - 79° (E) 1,857 -0.7 -13.2°
